TAX73JC LOWI-LSZS

Flight info

Callsign TAX73JC
Flight time 0h 34m
Altitude 30000
Route MOGTI P66 KPT L856 AKABI/N0471F290 L856 TRA N850 GERSA Z50 PELAD
Aircraft A320/M-SDE3FGHIRWY/LB1

Departure

Time 2026-04-26 08:53
Airport Innsbruck Airport (LOWI)

Arrival

Time 2026-04-26 09:27
Airport Engadin Airport (LSZS)
Time Latitude Longitude Altitude Speed Heading
2026-04-26 08:39 47.25814 11.34990 1904 ft 0 kts 171°
2026-04-26 08:47 47.25832 11.34986 1888 ft 4 kts 178°
2026-04-26 08:47 47.25858 11.34989 1893 ft 4 kts 204°
2026-04-26 08:47 47.25874 11.35010 1892 ft 2 kts 259°
2026-04-26 08:48 47.25875 11.35013 1892 ft 0 kts 261°
2026-04-26 08:49 47.25874 11.35010 1892 ft 3 kts 261°
2026-04-26 08:50 47.25866 11.34932 1894 ft 12 kts 261°
2026-04-26 08:50 47.25848 11.34768 1891 ft 19 kts 260°
2026-04-26 08:50 47.25825 11.34563 1904 ft 21 kts 261°
2026-04-26 08:50 47.25802 11.34340 1896 ft 23 kts 261°
2026-04-26 08:51 47.25819 11.33865 1890 ft 25 kts 306°
2026-04-26 08:51 47.25924 11.33649 1896 ft 26 kts 301°
2026-04-26 08:51 47.25911 11.33391 1904 ft 26 kts 262°
2026-04-26 08:52 47.25855 11.33197 1896 ft 13 kts 221°
2026-04-26 08:52 47.25845 11.33083 1901 ft 11 kts 314°
2026-04-26 08:52 47.25884 11.33125 1902 ft 4 kts 84°
2026-04-26 08:52 47.25884 11.33126 1901 ft 0 kts 84°
2026-04-26 08:53 47.25935 11.33606 1902 ft 95 kts 81°
2026-04-26 08:53 47.26085 11.34966 1980 ft 165 kts 79°
2026-04-26 08:53 47.26281 11.36685 2876 ft 176 kts 81°
2026-04-26 08:54 47.26465 11.38509 3562 ft 187 kts 82°
2026-04-26 08:54 47.26661 11.40518 3909 ft 211 kts 82°
2026-04-26 08:54 47.26883 11.42778 4327 ft 235 kts 81°
2026-04-26 08:54 47.27254 11.45246 4832 ft 259 kts 71°
2026-04-26 08:55 47.27887 11.47802 5672 ft 270 kts 68°
2026-04-26 08:55 47.28605 11.50379 6652 ft 274 kts 67°
2026-04-26 08:55 47.29343 11.52983 7572 ft 278 kts 70°
2026-04-26 08:55 47.29562 11.55828 8450 ft 286 kts 97°
2026-04-26 08:56 47.28803 11.58549 9334 ft 294 kts 128°
2026-04-26 08:56 47.27813 11.59913 9930 ft 298 kts 148°
2026-04-26 08:56 47.25146 11.60878 11045 ft 302 kts 188°
2026-04-26 08:56 47.23192 11.59816 11835 ft 302 kts 219°
2026-04-26 08:57 47.21852 11.57484 12673 ft 302 kts 248°
2026-04-26 08:57 47.21447 11.54491 13458 ft 302 kts 276°
2026-04-26 08:57 47.21870 11.51393 13905 ft 320 kts 286°
2026-04-26 08:57 47.22497 11.48134 14154 ft 343 kts 288°
2026-04-26 08:58 47.23171 11.44648 14317 ft 366 kts 282°
2026-04-26 08:58 47.23419 11.40844 14698 ft 379 kts 276°
2026-04-26 08:58 47.23723 11.36967 15315 ft 384 kts 281°
2026-04-26 08:58 47.24327 11.33133 15944 ft 387 kts 287°
2026-04-26 08:59 47.25128 11.29337 16587 ft 390 kts 289°
2026-04-26 08:59 47.25699 11.26823 17006 ft 392 kts 290°
2026-04-26 08:59 47.26608 11.23017 17620 ft 396 kts 290°
2026-04-26 08:59 47.27552 11.19185 18255 ft 399 kts 291°
2026-04-26 09:00 47.28508 11.15334 18828 ft 403 kts 291°
2026-04-26 09:00 47.29466 11.11443 19394 ft 405 kts 290°
2026-04-26 09:00 47.30419 11.07527 19948 ft 408 kts 290°
2026-04-26 09:00 47.31368 11.03572 20479 ft 410 kts 290°
2026-04-26 09:01 47.32314 10.99596 21011 ft 413 kts 290°
2026-04-26 09:01 47.33262 10.95591 21527 ft 415 kts 290°
2026-04-26 09:01 47.34215 10.91558 22060 ft 418 kts 290°
2026-04-26 09:01 47.35171 10.87497 22563 ft 420 kts 290°
2026-04-26 09:02 47.36131 10.83418 23059 ft 422 kts 290°
2026-04-26 09:02 47.37101 10.79317 23505 ft 425 kts 291°
2026-04-26 09:02 47.38342 10.75359 23941 ft 426 kts 300°
2026-04-26 09:02 47.40023 10.71752 24349 ft 428 kts 310°
2026-04-26 09:03 47.42100 10.68590 24753 ft 430 kts 319°
2026-04-26 09:03 47.44505 10.65944 25143 ft 433 kts 325°
2026-04-26 09:03 47.46991 10.63416 25541 ft 435 kts 325°
2026-04-26 09:03 47.49489 10.60867 25920 ft 437 kts 324°
2026-04-26 09:04 47.51998 10.58298 26285 ft 439 kts 324°
2026-04-26 09:04 47.54513 10.55711 26653 ft 442 kts 324°
2026-04-26 09:04 47.57043 10.53102 26997 ft 444 kts 324°
2026-04-26 09:04 47.59582 10.50480 27329 ft 446 kts 324°
2026-04-26 09:05 47.62136 10.47841 27612 ft 450 kts 324°
2026-04-26 09:05 47.64709 10.45180 27924 ft 452 kts 324°
2026-04-26 09:05 47.67298 10.42506 28237 ft 454 kts 323°
2026-04-26 09:05 47.69675 10.39523 28534 ft 455 kts 313°
2026-04-26 09:06 47.71658 10.35811 28941 ft 452 kts 301°
2026-04-26 09:06 47.73086 10.31741 29391 ft 450 kts 291°
2026-04-26 09:06 47.73899 10.27273 29819 ft 449 kts 277°
2026-04-26 09:06 47.73923 10.22649 30176 ft 449 kts 263°
2026-04-26 09:07 47.73137 10.18190 30251 ft 447 kts 248°
2026-04-26 09:07 47.71554 10.14230 30247 ft 448 kts 232°
2026-04-26 09:07 47.69290 10.11048 30252 ft 450 kts 216°
2026-04-26 09:07 47.66529 10.08870 30247 ft 452 kts 201°
2026-04-26 09:08 47.63485 10.07641 30246 ft 454 kts 195°
2026-04-26 09:08 47.57331 10.05509 30247 ft 455 kts 195°
2026-04-26 09:09 47.51156 10.03419 30244 ft 455 kts 195°
2026-04-26 09:09 47.44982 10.01310 30243 ft 455 kts 195°
2026-04-26 09:10 47.38811 9.99199 30244 ft 455 kts 195°
2026-04-26 09:10 47.32643 9.97087 30227 ft 455 kts 195°
2026-04-26 09:11 47.26472 9.94983 30230 ft 455 kts 195°
2026-04-26 09:11 47.20296 9.92881 30235 ft 456 kts 195°
2026-04-26 09:12 47.14116 9.90779 30224 ft 456 kts 195°
2026-04-26 09:12 47.07938 9.88688 30230 ft 456 kts 194°
2026-04-26 09:12 47.04838 9.87644 30024 ft 457 kts 194°
2026-04-26 09:13 47.01739 9.86600 29736 ft 458 kts 194°
2026-04-26 09:13 46.98639 9.85555 28709 ft 459 kts 194°
2026-04-26 09:13 46.95501 9.84495 27426 ft 465 kts 194°
2026-04-26 09:13 46.92338 9.83427 26200 ft 469 kts 194°
2026-04-26 09:14 46.89142 9.82348 24982 ft 473 kts 194°
2026-04-26 09:14 46.85944 9.81277 24252 ft 467 kts 194°
2026-04-26 09:14 46.82851 9.80252 24116 ft 446 kts 194°
2026-04-26 09:14 46.79887 9.79270 23996 ft 427 kts 194°
2026-04-26 09:15 46.77050 9.78324 23886 ft 410 kts 194°
2026-04-26 09:15 46.74321 9.77410 23734 ft 394 kts 194°
2026-04-26 09:15 46.71700 9.76532 23599 ft 379 kts 194°
2026-04-26 09:15 46.69174 9.75683 23469 ft 366 kts 194°
2026-04-26 09:16 46.66734 9.74864 23321 ft 354 kts 194°
2026-04-26 09:16 46.64389 9.73925 23051 ft 345 kts 205°
2026-04-26 09:16 46.62385 9.72135 22781 ft 336 kts 224°
2026-04-26 09:16 46.60922 9.69543 22511 ft 331 kts 242°
2026-04-26 09:17 46.60102 9.66449 22068 ft 330 kts 259°
2026-04-26 09:17 46.59974 9.63109 21545 ft 331 kts 272°
2026-04-26 09:17 46.60037 9.59786 21187 ft 327 kts 272°
2026-04-26 09:17 46.60079 9.56482 20781 ft 326 kts 270°
2026-04-26 09:18 46.59667 9.53269 20383 ft 325 kts 248°
2026-04-26 09:18 46.58422 9.50540 20004 ft 326 kts 225°
2026-04-26 09:18 46.56533 9.48735 19601 ft 329 kts 202°
2026-04-26 09:18 46.54292 9.48156 19223 ft 330 kts 178°
2026-04-26 09:19 46.52046 9.48822 18837 ft 332 kts 163°
2026-04-26 09:19 46.49838 9.49810 18343 ft 334 kts 163°
2026-04-26 09:19 46.47568 9.50841 17381 ft 350 kts 163°
2026-04-26 09:19 46.45195 9.51922 16410 ft 364 kts 163°
2026-04-26 09:20 46.42791 9.53020 15464 ft 367 kts 162°
2026-04-26 09:20 46.40405 9.54104 15043 ft 348 kts 163°
2026-04-26 09:20 46.38141 9.55129 14536 ft 336 kts 163°
2026-04-26 09:20 46.35944 9.56119 14112 ft 324 kts 162°
2026-04-26 09:21 46.33996 9.57549 13679 ft 310 kts 137°
2026-04-26 09:21 46.32831 9.60056 13233 ft 296 kts 106°
2026-04-26 09:21 46.32765 9.62905 12778 ft 272 kts 73°
2026-04-26 09:21 46.33509 9.65283 12413 ft 251 kts 58°
2026-04-26 09:22 46.34405 9.67346 12057 ft 233 kts 55°
2026-04-26 09:22 46.35499 9.68928 11704 ft 213 kts 31°
2026-04-26 09:22 46.36749 9.69815 11473 ft 193 kts 21°
2026-04-26 09:22 46.37939 9.70376 11294 ft 172 kts 19°
2026-04-26 09:23 46.39017 9.71094 10880 ft 170 kts 30°
2026-04-26 09:23 46.39952 9.72101 10528 ft 166 kts 41°
2026-04-26 09:23 46.40782 9.73264 10122 ft 165 kts 44°
2026-04-26 09:23 46.41618 9.74344 9853 ft 158 kts 41°
2026-04-26 09:24 46.42430 9.75389 9569 ft 155 kts 42°
2026-04-26 09:24 46.43223 9.76442 9277 ft 154 kts 43°
2026-04-26 09:24 46.44002 9.77500 8988 ft 153 kts 43°
2026-04-26 09:24 46.44796 9.78541 8582 ft 155 kts 41°
2026-04-26 09:25 46.45600 9.79579 8206 ft 154 kts 41°
2026-04-26 09:25 46.46404 9.80590 7933 ft 152 kts 39°
2026-04-26 09:25 46.47230 9.81540 7645 ft 151 kts 39°
2026-04-26 09:25 46.48023 9.82535 7358 ft 150 kts 42°
2026-04-26 09:26 46.48796 9.83545 7115 ft 149 kts 40°
2026-04-26 09:26 46.49585 9.84520 6802 ft 149 kts 40°
2026-04-26 09:26 46.50356 9.85513 6496 ft 147 kts 42°
2026-04-26 09:26 46.51127 9.86472 6126 ft 147 kts 31°
2026-04-26 09:27 46.51983 9.87231 5824 ft 142 kts 30°
2026-04-26 09:27 46.52843 9.87922 5616 ft 136 kts 29°
2026-04-26 09:27 46.53524 9.88475 5617 ft 74 kts 29°
2026-04-26 09:27 46.53742 9.88639 5612 ft 14 kts 14°
2026-04-26 09:28 46.53756 9.88664 5611 ft 11 kts 195°
2026-04-26 09:28 46.53681 9.88604 5611 ft 12 kts 211°
2026-04-26 09:28 46.53618 9.88553 5612 ft 8 kts 209°
2026-04-26 09:28 46.53577 9.88520 5615 ft 7 kts 209°
2026-04-26 09:29 46.53513 9.88468 5614 ft 15 kts 209°
2026-04-26 09:29 46.53422 9.88394 5613 ft 14 kts 209°
2026-04-26 09:29 46.53351 9.88337 5619 ft 10 kts 209°
2026-04-26 09:29 46.53294 9.88291 5614 ft 9 kts 209°
2026-04-26 09:30 46.53222 9.88232 5612 ft 15 kts 210°
2026-04-26 09:30 46.53119 9.88149 5612 ft 19 kts 209°
2026-04-26 09:30 46.52993 9.88046 5607 ft 23 kts 210°
2026-04-26 09:30 46.52904 9.87960 5609 ft 5 kts 237°
2026-04-26 09:31 46.52894 9.87969 5613 ft 5 kts 64°
2026-04-26 09:31 46.52955 9.88013 5607 ft 12 kts 15°
2026-04-26 09:31 46.52989 9.87981 5607 ft 3 kts 297°
2026-04-26 09:31 46.52992 9.87972 5607 ft 0 kts 298°
2026-04-26 09:33 46.53010 9.87938 5610 ft 5 kts 330°
2026-04-26 09:34 46.53039 9.87939 5608 ft 5 kts 24°
2026-04-26 09:34 46.53041 9.87941 5608 ft 1 kts 49°
2026-04-26 09:34 46.53042 9.87959 5615 ft 0 kts 297°